Regional Weather Roundup
Issued by NWS Albany, NY

Home | Current Version | Previous Version | Text Only | Print | Product List | Glossary On
Versions: 1 2 3 4 5 6 7 8 9 10 11 12 13 14 15 16 17 18 19 20 21 22 23 24 25 26 27 28 29 30 31 32 33 34 35 36 37 38 39 40 41 42 43 44 45 46 47 48
000
ASUS41 KALY 301310
RWRALY

NEW YORK STATE HOURLY WEATHER ROUNDUP
NATIONAL WEATHER SERVICE ALBANY NY
900 AM EDT TUE SEP 30 2014

NOTE: "FAIR" INDICATES FEW OR NO CLOUDS BELOW 12,000 FEET WITH NO
SIGNIFICANT WEATHER AND/OR NO OBSTRUCTIONS TO VISIBILITY.

NYZ032-033-038>043-046>054-057>066-NYZ062>081-301400-
EAST


CITY           SKY/WX    TMP DP  RH WIND       PRES   REMARKS
ALBANY         CLOUDY    61  58  90 N3        29.98S
GLENS FALLS    CLOUDY    60  57  89 CALM      29.99R
POUGHKEEPSIE   CLOUDY    64  59  83 E7        29.97R
NEWBURGH       CLOUDY    63  63 100 CALM      29.98R FOG
MONTGOMERY     CLOUDY    58  57  97 CALM      29.97S
WHITE PLAINS     N/A     64  61  90 E6        29.98S FOG
ISLIP          LGT RAIN  64  62  93 NE7       29.97R FOG
NEW YORK CITY  CLOUDY    68  63  84 NE9       29.97R
CENTRAL PARK   CLOUDY    68  61  78 E5        30.00R
$$

NYZ005>009-017-018-044>046-055-056-301400-
CENTRAL


CITY           SKY/WX    TMP DP  RH WIND       PRES   REMARKS
FULTON         MOSUNNY   61  57  87 VRB5      29.91S
SYRACUSE       PTSUNNY   59  56  89 E8        29.91S
ROME           MOSUNNY   61  58  90 SE8       29.96S
ELMIRA         FOG       54  54 100 CALM      29.93S VSB 1/16
BINGHAMTON     SUNNY     59  57  93 S5        29.94S FOG
MONTICELLO     CLOUDY    57  57 100 CALM      30.00R
$$

NYZ026>034-041>043-301400-
NORTH


CITY           SKY/WX    TMP DP  RH WIND       PRES   REMARKS
WATERTOWN      CLOUDY    54  49  83 NE7       29.93S HAZE
FORT DRUM      NOT AVBL
MASSENA        CLOUDY    49  48  97 E9        30.00S
SARANAC LAKE   PTSUNNY   52  50  93 N3        29.97S
PLATTSBURGH    CLOUDY    51  46  83 CALM      30.00S
$$

NYZ001>004-010>016-019>021-301400-
WEST


CITY           SKY/WX    TMP DP  RH WIND       PRES   REMARKS
NIAGARA FALLS  PTSUNNY   61  58  90 CALM      29.88S
BUFFALO        MOSUNNY   58  52  80 SE6       29.89S
DUNKIRK        SUNNY     60  56  86 S3        29.89S
JAMESTOWN      MOSUNNY   52  52 100 S5        29.93S
WELLSVILLE     PTSUNNY   54  53  97 CALM      29.95S FOG
ROCHESTER      PTSUNNY   57  55  93 SW6       29.91S
PENN YAN       MOSUNNY   60  58  92 SW5       29.93R
$$

             KEY
       WCI = WIND CHILL INDEX
       VSB = VISIBILITY
       HX  = HEAT INDEX
$$



USA.gov is the U.S. government's official web portal to all federal, state and local government web resources and services.